Погода в Кировауле

Россия / Республика Дагестан     43°14′05″N   46°50′31″E
темп.,
°C
ветер,
м/с
пор.,
м/с
влажн.,
%
обл.,
%
осадки,
мм/ч
давл.,
гПа
погр.,
м
27 января, ср
ср2700:00+3вюв35810 0.0 102177
03:00+2вюв358321 0.0 101971
06:00+2вюв47850 0.0 1018147
09:00+4вюв58832 0.0 1017304
12:00+9в455939 0.0 1014422
15:00+9вюв565570 0.0 1012441
18:00+5вюв468445 0.0 1012147
21:00+4юв128658 0.0 101034
28 января, чт
чт2800:00+4з2281100 0.0 100922
03:00+3зсз1273100 0.0 100722
06:00+2з127783 0.0 100622
09:00+4сз226866 0.0 100686
12:00+8ссв1158100 0.0 1003223
15:00+9сз2354100 0.0 1002289
18:00+7зсз71368100 0.0 1004453
21:00+7з81763100 0.0 1006755
29 января, пт
пт2900:00+7з111870100 0.0 1009918
03:00+7з71272100 0.0 1010655
06:00+6з61180100 0.0 1012506
09:00+6зсз588096 0.1 1013644
12:00+6зсз4575100 0.1 1013607
15:00+7зсз236497 0.1 1013851
18:00+6з1167100 0.0 101524
21:00+6вюв357197 0.0 1015211
30 января, сб
сб3000:00+4вюв588425 0.0 1015203
03:00+3вюв349012 0.0 101482
06:00+2вюв359210 0.0 1014114
09:00+5вюв368414 0.0 1013354
12:00+9в676312 0.0 1011825
15:00+9в78656 0.0 1010676
18:00+5в69861 0.0 1011328
21:00+4вюв47905 0.0 1010197
31 января, вс
вс3100:00+3вюв47930 0.0 1009195
03:00+2вюв23944 0.0 100858
06:00+1з009317 0.0 100722
09:00+4зсз33858 0.0 1007142
12:00+8сз22611 0.0 1007401
15:00+9сз345649 0.0 1008528
18:00+6зсз4868100 0.0 1013266
21:00+4зсз368181 0.0 1015141